Location: Henau
(47.4548°N, 9.1164°E)
Time: 03:30:27
(UTC+00:00)

Cosmos 2341 Rocket - Pass Details

Date: 03 March 2021
Orbit: 968 x 1005 km, 82.9° (Epoch: 16 April)

Event Time Altitude Azimuth Distance (km) Brightness Sun altitude
Rises 18:29:08 0° 175° (S) 3,698 6.9 -13.9°
Reaches altitude 10° 18:31:41 10° 172° (S) 2,749 6.2 -14.3°
Maximum altitude 18:37:52 61° 93° (E) 1,109 4.0 -15.3°
Drops below altitude 10° 18:44:02 10° 15° (NNE) 2,742 6.3 -16.4°
Sets 18:46:35 0° 12° (NNE) 3,689 7.0 -16.8°
